Weather History for Guatemala Aeropuertola Aurora, Guatemala

Change the Weather History Date:

Friday, January 10, 2014

  Actual Average Record
Temperature  
Mean Temperature 66 °F -  
Max Temperature 77 °F 73 °F - ()
Min Temperature 55 °F 54 °F - ()
Cooling Degree Days 1    
Growing Degree Days 16 (Base 50)    
Moisture  
Dew Point 56 °F    
Average Humidity 74    
Maximum Humidity 94    
Minimum Humidity 36    
Precipitation  
Precipitation 0.00 in - - ()
Sea Level Pressure  
Sea Level Pressure 30.22 in    
Wind  
Wind Speed 9 mph ()    
Max Wind Speed 16 mph    
Max Gust Speed -    
Visibility 6.1 miles    
Events      
T = Trace of Precipitation, MM = Missing Value Source: Averaged Metar Reports

Daily Weather History Graph

Daily Weather History Graph

Search for Another Location

Airport:

Trip Planner

Search our weather history database for the weather conditions in past years. The results will help you decide how hot, cold, wet, or windy it might be!

Date:

Astronomy

Jan. 10, 2014 Rise Set
Actual Time 6:29 AM CST 5:49 PM CST
Civil Twilight 6:06 AM CST 6:12 PM CST
Nautical Twilight 5:40 AM CST 6:39 PM CST
Astronomical Twilight 5:14 AM CST 7:05 PM CST
Moon 1:41 PM CST (1/10) 1:52 AM CST (1/10)
Length of Visible Light 12h 05m
Length of Day
11h 19m
Waxing Gibbous, 75% of the Moon is Illuminated
Jan 10
Waxing Gibbous
Jan 15
Full
Jan 23
Last Quarter
Jan 30
New
Feb 6
First Quarter

Hourly Weather History & Observations

Time (CST) Temp. Dew Point Humidity Pressure Visibility Wind Dir Wind Speed Gust Speed Precip Events Conditions
12:00 AM 59.0 °F 57.2 °F 94% 30.30 in 6.2 mi North 13.8 mph - N/A   Mostly Cloudy
1:00 AM 59.0 °F 57.2 °F 94% 30.27 in 6.2 mi NNE 11.5 mph - N/A   Mostly Cloudy
2:00 AM 59.0 °F 57.2 °F 94% 30.27 in 6.2 mi North 11.5 mph - N/A   Mostly Cloudy
3:00 AM 57.2 °F 55.4 °F 94% 30.27 in 6.2 mi North 11.5 mph - N/A   Overcast
4:00 AM 59.0 °F 57.2 °F 94% 30.24 in 6.2 mi North 11.5 mph - N/A   Mostly Cloudy
5:00 AM 59.0 °F 57.2 °F 94% 30.01 in 6.2 mi North 11.5 mph - N/A   Mostly Cloudy
6:00 AM 58 °F 56 °F 90% 29.98 in 25 mi North 9.2 mph - -   Mostly Cloudy
6:00 AM 59.0 °F 55.4 °F 88% 30.27 in 6.2 mi North 9.2 mph - N/A   Mostly Cloudy
7:00 AM 57.2 °F 55.4 °F 94% 30.27 in 6.2 mi North 13.8 mph - N/A   Mostly Cloudy
8:00 AM 60.8 °F 57.2 °F 88% 30.30 in 6.2 mi NNE 11.5 mph - N/A   Mostly Cloudy
9:00 AM 62.6 °F 55.4 °F 77% 30.33 in 6.2 mi North 11.5 mph - N/A   Scattered Clouds
10:00 AM 66.2 °F 55.4 °F 68% 30.33 in 6.2 mi North 13.8 mph - N/A   Scattered Clouds
11:00 AM 68.0 °F 53.6 °F 60% 30.30 in 6.2 mi North 9.2 mph - N/A   Partly Cloudy
12:00 PM 73 °F 55 °F 44% 29.95 in 25 mi North 9.2 mph - -   Scattered Clouds
12:00 PM 73.4 °F 55.4 °F 53% 30.27 in 6.2 mi North 9.2 mph - N/A   Partly Cloudy
1:00 PM 73.4 °F 57.2 °F 57% 30.21 in 6.2 mi East 4.6 mph - N/A   Partly Cloudy
2:00 PM 75.2 °F 50.0 °F 41% 30.18 in 6.2 mi Variable 3.5 mph - N/A   Partly Cloudy
2:21 PM - - N/A% - 6.2 mi South 6.9 mph - N/A   Partly Cloudy
3:00 PM 77.0 °F 48.2 °F 36% 30.15 in 6.2 mi South 6.9 mph - N/A   Partly Cloudy
4:00 PM 75.2 °F 50.0 °F 41% 30.18 in 6.2 mi SSW 9.2 mph - N/A   Partly Cloudy
5:00 PM 73.4 °F 55.4 °F 53% 30.18 in 6.2 mi South 9.2 mph - N/A   Partly Cloudy
6:00 PM 69.8 °F 60.8 °F 73% 30.18 in 6.2 mi South 6.9 mph - N/A   Partly Cloudy
7:00 PM 66.2 °F 60.8 °F 83% 30.21 in 5.0 mi Calm Calm - N/A   Partly Cloudy
8:00 PM 64.4 °F 57.2 °F 77% 30.24 in 5.0 mi North 6.9 mph - N/A   Partly Cloudy
9:00 PM 62.6 °F 53.6 °F 72% 30.27 in - North 9.2 mph - N/A   Clear
10:00 PM 60.8 °F 55.4 °F 82% 30.27 in - North 9.2 mph - N/A   Clear
11:00 PM 59.0 °F 57.2 °F 94% 30.30 in - North 13.8 mph - N/A   Clear
11:10 PM - - N/A% - 6.2 mi North 16.1 mph - N/A   Mostly Cloudy